Погода в Махачкале

Поиск расширенной информации на нашем сайте:

Полезная информация:

Новости сайта



02.01.2020
Опубликован Долгосрочный прогноз погоды по городам России и ближнего зарубежья на январь 2020 года.
Карты: Прогноз на январь и февраль 2020 года, Сравнение прогнозируемой аномалии приземной температуры воздуха на январь 2020 года по разным моделям.




Погода в Махачкале - сегодня

Время (UTC), дата Ветер
(°,м/с) 
Видим.   Явления Облачность Т
(°С)
Тd
(°С)
f(%) Тe
(°С)
Pmin
(гПа)
dP
(гПа)
Po
(мм)
O2
(г/м3)
Тmin Tmax R s Состояние
почвы
15 18.10.20 140 (ЮВ) 20000 м    8/4 600 м кучево-дожд., средняя, верхняя 
[Cb calv|Ac trans|Ci fib]
+22.9 +19.6 82 +40  1009.2  -0.2  758  277    +25       
18 18.10.20 320 (СЗ) 10 км    ясно 
+13.1 +10.7 85 +16  1014.8  -0.2  763  291           
21 18.10.20 310 (СЗ) 10 км    ясно 
+12 +10 88 +14  1014.2  -0.6  762  292           
00 19.10.20 300 (СЗ) 4000 м    ясно кучево-дожд., средняя, верхняя 
[Cb cap|Ac inh|Cs]
+10.2 +8.6 90 +10  1014.9  0.7             
03 19.10.20 290 (З) 0500 м  туман  ?/?  
+12.2 +10.9 92 +14  1016.2  1.3  764  293  +9.8        сухая 
06 19.10.20 300 (СЗ) н/о    н/о 
+15.5 +10.4 72 +16  1017.2  765  290           
09 19.10.20 300 (СЗ) 4000 м    ясно кучево-дожд., средняя, верхняя 
[Cb cap|Ac inh|Cs]
+20.9 +11.4 55 +21  1015.5             
12 19.10.20 140 (ЮВ) 4000 м  дымка  ясно 
+19.1 +13.9 72 +26  1014.3  -1.2  762  284           
15 19.10.20 290 (З) 98  1800 м    1/0 100 м 
[]
+16.2 +8.7 61 +13  1014.6  0.2  704  266          замёрзшая 
18 19.10.20 160 (Ю) 4000 м    ясно верхняя 
[Sc|Ci fib]
+15.8 +13.6 87 +17  1013.9  -0.3             
21 19.10.20 290 (З) н/о    н/о 
+12.6 +10.7 88 +14  1015.9  764  292           
00 20.10.20 320 (СЗ) 6-11  4000 м  в посл. час туман  3/0 верхняя 
[Ci fib]
+17 +9.9 63 +18  1017.2  1.3  765  288          замёрзшая 
03 20.10.20 330 (СЗ) н/о    н/о 
+18.1 +9.4 57 +18  1020.2  767  288  +12.4         
06 20.10.20 330 (СЗ) 8-16  20000 м    9/4 600 м средняя, верхняя 
[Sc|Ac trans|Ci fib]
+17.7 +8.7 56 +17  1023  2.8  769  290          полностью
покрыта
пылью 
09 20.10.20 340 (С) 7-12  20000 м    8/3 600 м средняя, верхняя 
[Sc|Ac trans|Ci fib]
+18.6 +7.7 49 +19  1023.6  0.5  769  289          замёрзшая 
12 20.10.20 010 (С) 4{12}  20000 м    9/0 кучево-дожд., средняя, верхняя 
[Cb calv|Ac trans|Ci fib]
+17.7 +6.8 49 +18  1024.1  0.5  770  290           
15 20.10.20 340 (С) 20000 м    9/6 600 м средняя, верхняя 
[Sc|Ac trans|Ci fib]
+16 +6.4 53 +17  1025.1  0.9  770  292      259    замёрзшая 
18 20.10.20 тихо ()   20000 м    9/6 600 м средняя, верхняя 
[Sc|Ac trans|Ci fib]
+14.6 +7.3 62 +15  1025  0.1  770  293           
21 20.10.20 280 (З) 20000 м    10/6 600 м средняя 
[Sc|Ac trans]
+14.1 +7.8 66 +15  1025.5  0.5  771  294           
00 21.10.20 280 (З) 20000 м    10/6 600 м средняя 
[Sc|Ac trans]
+14.1 +8.5 69 +15  1025.8  0.2  771  294           
03 21.10.20 330 (СЗ) 20000 м  {дождь}  10/10 600 м 
[Sc]
+13.6 +8.9 73 +15  1026.6  0.8  772  295  +13.6    0.0     
06 21.10.20 310 (СЗ) 10 км  {дождь}  10/6 600 м средняя 
[Sc|Ac As]
+13.5 +7.1 65 +14  1029.3  2.7  774  296  +13.5         
09 21.10.20 290 (З) 10 км    9/5 600 м средняя, верхняя 
[Sc|Ac As|Ci fib]
+14.4 +4.4 51 +15  1029.4  2.7  774  296           
12 21.10.20 340 (С) 10 км    9/4 600 м средняя, верхняя 
[Sc diur, vesp|Ac cast|Ci fib]
+16.1 +3 41 +16  1028.6  -0.7  773  294           
15 21.10.20 260 (З) 10 км    9/5 600 м средняя, верхняя 
[Sc|Ac As|Ci fib]
+12.8 +3.7 54 +14  1028.9  0.3  773  297    +16.6       
Время (UTC), дата Ветер
(°,м/с) 
Видим.   Явления Облачность Т
(°С)
Тd
(°С)
f(%) Тe
(°С)
Pmin
(гПа)
dP
(гПа)
Po
(мм)
O2
(г/м3)
Тmin Tmax R s Состояние
почвы

Для получения пояснительной информации подведите курсор к названию столбца.

ПОГОДА в Махачкале - архив

Всё, что Вы хотите узнать о погоде в Махачкале - удобно и подробно!

Выберите нужную дату (начиная с 1 января 2019* года) и нажмите кнопку "Найти".
Будут отображены архивные сводки погоды по пункту Махачкала, начиная с указанной даты.


Отображать данные в формате CSV (для использования в таблицах Excel)


Внимание! Наш архив погоды предназначен исключительно для личного некоммерческого использования в познавательных целях. Если Вам необходимы официальные справки о состоянии погоды (для производственных, юридических, коммерческих и т.п. целей), обращайтесь в органы Росгидромета.

*Примечание: данная дата относится к архиву по метеостанциям СССР (Россия, СНГ, Балтия).
Архив по метеостанциям Зарубежной Европы и Азии (кроме Китая) хранится 10 дней, по другим регионам земного шара (Китай, Африка, Америка, Австралия, Океания) - 1 день.

Махачкала - район местоположения метеостанции


Название, широта, долгота, высота метеостанции:
Махачкала 42.8°ш. 47.6°д. 32 м над ур. моря [Российская Федерация]

Дополнительная информация

В oтличие oт бoльшинства пoгoдных сайтoв мы публикуем пoдрoбную метеoинфoрмацию в детальнoм прoфессиoнальнoм фoрмате.

Характеристики температуры и влажнoсти вoздуха измеряются на высoте 2 м в тени вдали oт зданий и деревьев.
Скoрoсть ветра измеряется на высoте 10 м (на урoвне рoста челoвека скoрoсть ветра ниже в 1.5-2 раза). Если метеoстанция нахoдится в гoрoде или в лесу, тo скoрoсть ветра занижена на 2-4 м/с пo сравнению с oткрытым местoм. Скoрoсть ветра над акватoриями крупных рек и oзёр, а также на вершинах хoлмoв на 2-5 м/с выше, чем в oбычных услoвиях.
Атмoсфернoе давление в разных тoчках местнoсти мoжет значительнo oтличаться oт давления на метеoстанции, в зависимoсти oт услoвий рельефа (при пoдъёме на 10 м давление пoнижается примернo на 1 мм рт.ст.).